TITAN 3C TRANSTAGE DEB, 43449

Orbit data source: Space-Track

TITAN 3C TRANSTAGE DEB, 43449 is space debris in GEO originally from a launch on Sun, 09 Feb 1969 UTC launched from the Air Force Eastern Test Range (AFETR). Debris objects in space refer to the collection of defunct objects orbiting the Earth. Examples of debris include non-operational satellites, rocket bodies, and fragments generated from explosions, collisions, or faulty payload assembly.

Loading next visibility...
Identifier
43449, 1969-013J
Orbit
GEO
Country
Flag of USUS
Related business
Manufacturer
Martin Marietta
Mission
Spacecraft
Bus & Motor
Unknown
Mass
Unknown
Launch date (UTC)
1969-02-09 (57 years ago)
Launch vehicle
Unknown
Launch site
Air Force Eastern Test Range (AFETR)
Object type
Payload
Rocket body
Debris
Shape & HBR
Unknown
Radar Cross Section
RCS unknown

Expand to show TLE details & history
Last TLE update: 19 hours ago

TLE from 19 hours ago
0 TITAN 3C TRANSTAGE DEB
1 43449U 69013J   25258.10760874 -.00000220  00000-0  00000-0 0  9993
2 43449   0.7238  64.1622 0145871  76.0554 220.8628  0.96591135 26173
Epoch: 2025-09-15T02:34Z
TLE epoch observation values (Epoch: 2025-09-15T02:34:57.395Z)
Latitude
-0.65875°
Longitude
-33.05448°
Altitude
37,333.971 km
Speed
3.003 km/s
True Right ascension
00h 00m 00s
True Declination
0° 39' 29"
Sunlit
Object was in full shadow at epoch
Visualization orbit readout
Latitude
Unknown
Longitude
Unknown
Altitude
Unknown
Speed
Unknown
Apparent Right ascension
Unknown
Apparent Declination
Unknown
Sunlit
N/A
Visualization observer readout
Local Sidereal Time
13:54:33
Azimuth
Unknown
Elevation
Unknown
Doppler factor
Unknown
Orbital elements
Apogee altitude
37,482.692 km
Perigee altitude
36,221.485 km
Semi-major axis
43,230.225 km
Eccentricity
0.01459
Inclination
0.7238°
RAAN
64.1622°
Arg. of periapsis
76.0554°
True anomaly
219.78413°
Mean anomaly
220.8628°
Eccentric anomaly
220.32198°
Mean motion
0.24147 °/min
Orbital period
1,490.87 mins
BSTAR
0
Loading maneuver chart data...
Computing Atmospheric mass density...

Documentation

Showing up to 5 results
|